RYR2ZX EGSS-LERS

Flight info

Callsign RYR2ZX
Flight time N/A
Altitude 33000
Route NUGBO M183 SILVA Q41 COWLY UT71 VAPID UN859 SOPIL DCT BALAN DCT EVPOK DCT NARAK DCT GAI DCT LOMRA DCT ROCAN DCT PUMAL/N0357F230 N31 BERGA
Aircraft B738/M-SDE2E3FGHIRWXY/LB1

Departure

Time 2026-05-06 13:26
Airport London Stansted Airport (EGSS)

Arrival

Time N/A
Airport Reus Airport (LERS)
Time Latitude Longitude Altitude Speed Heading
2026-05-06 12:54 51.89274 0.25932 356 ft 0 kts 42°
2026-05-06 13:15 51.89266 0.25920 356 ft 2 kts 36°
2026-05-06 13:15 51.89253 0.25905 359 ft 2 kts 28°
2026-05-06 13:15 51.89237 0.25895 363 ft 2 kts 13°
2026-05-06 13:16 51.89221 0.25892 360 ft 2 kts 349°
2026-05-06 13:16 51.89205 0.25901 357 ft 2 kts 327°
2026-05-06 13:16 51.89193 0.25916 364 ft 1 kts 315°
2026-05-06 13:16 51.89190 0.25921 363 ft 0 kts 314°
2026-05-06 13:19 51.89202 0.25900 361 ft 5 kts 313°
2026-05-06 13:19 51.89242 0.25832 358 ft 11 kts 313°
2026-05-06 13:19 51.89307 0.25721 356 ft 15 kts 313°
2026-05-06 13:19 51.89366 0.25597 359 ft 12 kts 279°
2026-05-06 13:20 51.89321 0.25495 356 ft 12 kts 223°
2026-05-06 13:20 51.89246 0.25382 356 ft 17 kts 223°
2026-05-06 13:20 51.89148 0.25234 360 ft 22 kts 223°
2026-05-06 13:20 51.89027 0.25050 361 ft 25 kts 222°
2026-05-06 13:21 51.88904 0.24868 356 ft 23 kts 223°
2026-05-06 13:21 51.88788 0.24693 357 ft 22 kts 223°
2026-05-06 13:21 51.88675 0.24524 351 ft 22 kts 223°
2026-05-06 13:21 51.88567 0.24363 350 ft 21 kts 222°
2026-05-06 13:22 51.88461 0.24203 356 ft 20 kts 223°
2026-05-06 13:22 51.88358 0.24049 348 ft 20 kts 223°
2026-05-06 13:22 51.88259 0.23899 352 ft 19 kts 223°
2026-05-06 13:22 51.88158 0.23748 347 ft 21 kts 223°
2026-05-06 13:23 51.88030 0.23557 349 ft 27 kts 223°
2026-05-06 13:23 51.87891 0.23348 344 ft 27 kts 223°
2026-05-06 13:23 51.87767 0.23161 343 ft 18 kts 222°
2026-05-06 13:23 51.87733 0.23033 343 ft 13 kts 295°
2026-05-06 13:24 51.87793 0.22929 347 ft 12 kts 313°
2026-05-06 13:24 51.87850 0.22828 351 ft 12 kts 313°
2026-05-06 13:24 51.87907 0.22729 347 ft 12 kts 311°
2026-05-06 13:24 51.87962 0.22675 348 ft 8 kts 31°
2026-05-06 13:25 51.88013 0.22752 346 ft 19 kts 43°
2026-05-06 13:25 51.88289 0.23165 347 ft 89 kts 43°
2026-05-06 13:25 51.88889 0.24061 358 ft 146 kts 41°
2026-05-06 13:25 51.89683 0.25274 883 ft 155 kts 40°
2026-05-06 13:26 51.90471 0.26468 1749 ft 157 kts 39°
2026-05-06 13:26 51.91333 0.27772 2012 ft 183 kts 40°
2026-05-06 13:26 51.92346 0.29161 2302 ft 197 kts 28°
2026-05-06 13:26 51.93665 0.29840 2724 ft 203 kts
2026-05-06 13:27 51.95060 0.29480 3376 ft 205 kts 339°
2026-05-06 13:27 51.96277 0.28102 3690 ft 229 kts 312°
2026-05-06 13:27 51.97002 0.25698 3986 ft 253 kts 287°
2026-05-06 13:27 51.97341 0.22817 4510 ft 264 kts 280°
2026-05-06 13:28 51.97607 0.19874 5139 ft 269 kts 280°
2026-05-06 13:28 51.97877 0.16848 5837 ft 272 kts 280°
2026-05-06 13:28 51.98174 0.13790 6495 ft 276 kts 281°
2026-05-06 13:28 51.98494 0.10713 7275 ft 274 kts 281°
2026-05-06 13:29 51.98818 0.07691 8036 ft 275 kts 281°
2026-05-06 13:29 51.98834 0.04589 8755 ft 279 kts 261°
2026-05-06 13:29 51.98409 0.01504 9614 ft 278 kts 259°
2026-05-06 13:29 51.97992 -0.01575 10321 ft 282 kts 260°
2026-05-06 13:30 51.97573 -0.04749 10580 ft 302 kts 260°
2026-05-06 13:30 51.97124 -0.08204 10876 ft 319 kts 260°
2026-05-06 13:30 51.96658 -0.11775 11423 ft 328 kts 260°
2026-05-06 13:30 51.96182 -0.15429 12051 ft 333 kts 259°
2026-05-06 13:31 51.95701 -0.19113 12866 ft 333 kts 259°
2026-05-06 13:31 51.95217 -0.22804 13569 ft 338 kts 259°
2026-05-06 13:31 51.94732 -0.26500 14309 ft 339 kts 259°
2026-05-06 13:31 51.94233 -0.30290 14926 ft 345 kts 259°
2026-05-06 13:32 51.93731 -0.34102 15672 ft 347 kts 259°
2026-05-06 13:32 51.93222 -0.37949 16384 ft 350 kts 259°
2026-05-06 13:32 51.92706 -0.41842 17034 ft 354 kts 259°
2026-05-06 13:32 51.92191 -0.45718 17781 ft 356 kts 258°
2026-05-06 13:33 51.91663 -0.49682 18346 ft 362 kts 259°
2026-05-06 13:33 51.91133 -0.53646 19014 ft 362 kts 258°
2026-05-06 13:33 51.90595 -0.57658 19575 ft 366 kts 258°
2026-05-06 13:33 51.90049 -0.61728 20127 ft 370 kts 258°
2026-05-06 13:34 51.89497 -0.65819 20768 ft 372 kts 258°
2026-05-06 13:34 51.88943 -0.69924 21333 ft 375 kts 258°
2026-05-06 13:34 51.88384 -0.74051 21872 ft 379 kts 258°
2026-05-06 13:34 51.87819 -0.78213 22393 ft 382 kts 258°
2026-05-06 13:35 51.87244 -0.82437 23006 ft 384 kts 258°
2026-05-06 13:35 51.86667 -0.86668 23570 ft 386 kts 258°
2026-05-06 13:35 51.86088 -0.90889 23983 ft 389 kts 257°
2026-05-06 13:35 51.85166 -0.95023 24390 ft 394 kts 240°
2026-05-06 13:36 51.83441 -0.98490 24808 ft 399 kts 222°
2026-05-06 13:36 51.81128 -1.01016 25241 ft 405 kts 207°
2026-05-06 13:36 51.78417 -1.02353 25638 ft 411 kts 192°
2026-05-06 13:36 51.76544 -1.02845 25935 ft 413 kts 191°
2026-05-06 13:37 51.73678 -1.03509 26324 ft 416 kts 190°
2026-05-06 13:37 51.70801 -1.04166 26710 ft 419 kts 190°
2026-05-06 13:37 51.66957 -1.05108 27228 ft 422 kts 191°
2026-05-06 13:37 51.64049 -1.05854 27614 ft 424 kts 191°
2026-05-06 13:38 51.62063 -1.06332 27874 ft 427 kts 188°
2026-05-06 13:38 51.59121 -1.06520 28231 ft 431 kts 180°
2026-05-06 13:38 51.56117 -1.06339 28713 ft 431 kts 179°
2026-05-06 13:38 51.53123 -1.06114 29258 ft 429 kts 179°
2026-05-06 13:39 51.50136 -1.05897 29797 ft 428 kts 179°
2026-05-06 13:39 51.47160 -1.05705 30246 ft 427 kts 180°
2026-05-06 13:39 51.44190 -1.05533 30616 ft 427 kts 180°
2026-05-06 13:39 51.41219 -1.05370 31000 ft 426 kts 180°
2026-05-06 13:40 51.37298 -1.05159 31537 ft 425 kts 180°
2026-05-06 13:40 51.35339 -1.05053 31785 ft 424 kts 180°
2026-05-06 13:40 51.32374 -1.04891 32166 ft 424 kts 180°
2026-05-06 13:40 51.29422 -1.04730 32560 ft 423 kts 180°
2026-05-06 13:41 51.26489 -1.04353 32913 ft 424 kts 172°
2026-05-06 13:41 51.20846 -1.01426 32987 ft 434 kts 157°
2026-05-06 13:42 51.15371 -0.97332 32972 ft 431 kts 156°
2026-05-06 13:42 51.09976 -0.93320 32967 ft 426 kts 156°
2026-05-06 13:43 51.04574 -0.89388 32976 ft 427 kts 157°
2026-05-06 13:43 50.99189 -0.85502 32974 ft 428 kts 157°
2026-05-06 13:44 50.93752 -0.81587 32972 ft 428 kts 157°
2026-05-06 13:44 50.88342 -0.77698 32976 ft 429 kts 157°
2026-05-06 13:45 50.83029 -0.73362 32975 ft 430 kts 149°
2026-05-06 13:45 50.75543 -0.65621 32974 ft 430 kts 147°
2026-05-06 13:46 50.70524 -0.60443 32974 ft 430 kts 148°
2026-05-06 13:46 50.65488 -0.55322 32971 ft 430 kts 148°
2026-05-06 13:47 50.60448 -0.50233 32971 ft 429 kts 148°
2026-05-06 13:47 50.55443 -0.45194 32973 ft 429 kts 148°
2026-05-06 13:48 50.50414 -0.40144 32973 ft 428 kts 148°
2026-05-06 13:48 50.45376 -0.35095 32974 ft 428 kts 148°
2026-05-06 13:49 50.40382 -0.30103 32979 ft 427 kts 148°
2026-05-06 13:49 50.35357 -0.25093 32973 ft 427 kts 148°
2026-05-06 13:50 50.30337 -0.20101 32981 ft 427 kts 148°
2026-05-06 13:50 50.25355 -0.15159 32977 ft 426 kts 148°
2026-05-06 13:51 50.20333 -0.10189 32973 ft 426 kts 148°
2026-05-06 13:51 50.15320 -0.05238 32977 ft 426 kts 148°
2026-05-06 13:52 50.10268 -0.00495 32964 ft 425 kts 155°
2026-05-06 13:52 50.07504 0.01148 32977 ft 424 kts 166°
2026-05-06 13:52 50.04636 0.02287 33067 ft 428 kts 167°
2026-05-06 13:53 50.01751 0.03371 33180 ft 433 kts 167°
2026-05-06 13:53 49.98800 0.04477 33329 ft 437 kts 167°
2026-05-06 13:53 49.95828 0.05606 33584 ft 439 kts 167°
2026-05-06 13:53 49.92863 0.06751 33926 ft 438 kts 167°
2026-05-06 13:54 49.89897 0.07908 34206 ft 438 kts 166°
2026-05-06 13:54 49.86978 0.09051 34469 ft 438 kts 166°
2026-05-06 13:54 49.84016 0.10212 34743 ft 437 kts 167°
2026-05-06 13:54 49.81070 0.11366 34960 ft 435 kts 167°
2026-05-06 13:55 49.75183 0.13665 34988 ft 440 kts 167°
2026-05-06 13:55 49.69233 0.15982 34981 ft 438 kts 167°
2026-05-06 13:56 49.63332 0.18323 34986 ft 436 kts 166°
2026-05-06 13:56 49.57498 0.20688 34989 ft 434 kts 166°
2026-05-06 13:57 49.51682 0.23034 34990 ft 433 kts 166°
2026-05-06 13:57 49.45851 0.25373 34969 ft 433 kts 166°
2026-05-06 13:58 49.40051 0.27692 34974 ft 433 kts 166°
2026-05-06 13:58 49.34190 0.30031 34967 ft 434 kts 166°
2026-05-06 13:59 49.28346 0.32385 34966 ft 435 kts 165°
2026-05-06 13:59 49.22536 0.34842 34970 ft 436 kts 165°
2026-05-06 14:00 49.16672 0.37331 34956 ft 437 kts 165°
2026-05-06 14:00 49.10827 0.39793 34956 ft 438 kts 165°
2026-05-06 14:01 49.04933 0.42262 34954 ft 439 kts 165°
2026-05-06 14:01 48.99067 0.44712 34950 ft 439 kts 165°
2026-05-06 14:02 48.93167 0.47171 34948 ft 439 kts 165°
2026-05-06 14:02 48.87264 0.49625 34952 ft 439 kts 165°
2026-05-06 14:03 48.81402 0.52057 34956 ft 439 kts 165°
2026-05-06 14:03 48.75505 0.54456 34960 ft 438 kts 166°
2026-05-06 14:04 48.69587 0.56759 34946 ft 438 kts 166°
2026-05-06 14:04 48.63675 0.59058 34954 ft 438 kts 166°
2026-05-06 14:05 48.57812 0.61348 34957 ft 437 kts 166°
2026-05-06 14:05 48.51908 0.63649 34950 ft 437 kts 165°
2026-05-06 14:06 48.46063 0.66008 34954 ft 437 kts 165°
2026-05-06 14:06 48.40175 0.68419 34948 ft 436 kts 165°
2026-05-06 14:07 48.34309 0.70804 34944 ft 436 kts 165°
2026-05-06 14:07 48.28467 0.73167 34950 ft 436 kts 165°
2026-05-06 14:08 48.22599 0.75523 34951 ft 436 kts 165°
2026-05-06 14:08 48.16719 0.77834 34939 ft 436 kts 166°
2026-05-06 14:09 48.10869 0.80124 34946 ft 436 kts 166°
2026-05-06 14:09 48.04986 0.82428 34936 ft 436 kts 166°
2026-05-06 14:10 47.99121 0.84722 34949 ft 437 kts 166°
2026-05-06 14:10 47.93239 0.87018 34946 ft 437 kts 166°
2026-05-06 14:11 47.87337 0.89316 34939 ft 437 kts 166°
2026-05-06 14:11 47.81476 0.91592 34933 ft 437 kts 166°
2026-05-06 14:12 47.75572 0.93877 34935 ft 437 kts 166°
2026-05-06 14:12 47.69712 0.96141 34936 ft 437 kts 166°
2026-05-06 14:13 47.63805 0.98419 34926 ft 438 kts 166°
2026-05-06 14:13 47.57898 1.00692 34942 ft 437 kts 166°
2026-05-06 14:14 47.52029 1.02946 34937 ft 437 kts 166°
2026-05-06 14:14 47.46120 1.05209 34938 ft 437 kts 166°
2026-05-06 14:15 47.40154 1.06548 34936 ft 435 kts 181°
2026-05-06 14:15 47.34077 1.06349 34930 ft 435 kts 182°
2026-05-06 14:16 47.28022 1.06114 34941 ft 435 kts 182°
2026-05-06 14:16 47.21991 1.05948 34934 ft 435 kts 181°
2026-05-06 14:17 47.15921 1.05808 34934 ft 435 kts 181°
2026-05-06 14:17 47.09889 1.05670 34932 ft 435 kts 181°
2026-05-06 14:18 47.03826 1.05529 34928 ft 435 kts 181°
2026-05-06 14:18 46.97749 1.05328 34926 ft 435 kts 182°
2026-05-06 14:19 46.91723 1.05052 34931 ft 435 kts 182°
2026-05-06 14:19 46.85667 1.04779 34922 ft 435 kts 182°
2026-05-06 14:20 46.79596 1.04517 34921 ft 435 kts 182°
2026-05-06 14:20 46.73529 1.04260 34931 ft 435 kts 182°
2026-05-06 14:21 46.67508 1.04005 34919 ft 435 kts 182°
2026-05-06 14:21 46.61441 1.03748 34926 ft 435 kts 182°
2026-05-06 14:22 46.55383 1.03492 34937 ft 435 kts 182°
2026-05-06 14:22 46.49359 1.03926 34908 ft 438 kts 169°
2026-05-06 14:23 46.43402 1.05931 34919 ft 439 kts 167°
2026-05-06 14:23 46.37495 1.08002 34918 ft 439 kts 167°
2026-05-06 14:24 46.31551 1.10030 34916 ft 438 kts 168°
2026-05-06 14:24 46.25623 1.12011 34920 ft 437 kts 168°
2026-05-06 14:25 46.20685 1.13650 34913 ft 436 kts 168°
2026-05-06 14:25 46.14763 1.15609 34914 ft 435 kts 168°
2026-05-06 14:26 46.08889 1.17551 34899 ft 435 kts 168°
2026-05-06 14:26 46.02981 1.19499 34892 ft 435 kts 168°
2026-05-06 14:27 45.97108 1.21432 34890 ft 434 kts 168°
2026-05-06 14:27 45.91206 1.23371 34881 ft 435 kts 168°
2026-05-06 14:28 45.85290 1.25310 34889 ft 435 kts 168°
2026-05-06 14:28 45.79407 1.27233 34886 ft 435 kts 168°
2026-05-06 14:29 45.73484 1.29166 34894 ft 436 kts 168°
2026-05-06 14:29 45.67581 1.31088 34895 ft 437 kts 169°
2026-05-06 14:30 45.61626 1.33023 34904 ft 437 kts 169°
2026-05-06 14:30 45.55716 1.34940 34909 ft 438 kts 169°
2026-05-06 14:31 45.49765 1.36866 34914 ft 438 kts 169°
2026-05-06 14:31 45.43817 1.38785 34910 ft 438 kts 169°
2026-05-06 14:32 45.37855 1.40703 34912 ft 438 kts 169°
2026-05-06 14:32 45.31937 1.42604 34915 ft 438 kts 169°
2026-05-06 14:33 45.25999 1.44508 34930 ft 438 kts 169°
2026-05-06 14:33 45.20034 1.46417 34926 ft 438 kts 169°
2026-05-06 14:34 45.14109 1.48309 34938 ft 438 kts 169°
2026-05-06 14:34 45.08143 1.50210 34943 ft 438 kts 169°
2026-05-06 14:35 45.02226 1.52091 34941 ft 437 kts 169°
2026-05-06 14:35 44.96276 1.53979 34934 ft 437 kts 169°
2026-05-06 14:36 44.90342 1.55858 34936 ft 436 kts 169°
2026-05-06 14:36 44.84456 1.57718 34923 ft 435 kts 170°
2026-05-06 14:37 44.78531 1.59585 34924 ft 435 kts 170°
2026-05-06 14:37 44.72629 1.61442 34916 ft 434 kts 170°
2026-05-06 14:38 44.66769 1.63282 34919 ft 433 kts 170°
2026-05-06 14:38 44.60875 1.65129 34924 ft 433 kts 170°
2026-05-06 14:39 44.54994 1.66968 34922 ft 432 kts 170°
2026-05-06 14:39 44.49152 1.68791 34933 ft 431 kts 171°
2026-05-06 14:40 44.43276 1.70621 34929 ft 432 kts 171°
2026-05-06 14:40 44.37443 1.72434 34937 ft 431 kts 171°
2026-05-06 14:41 44.31577 1.74254 34936 ft 431 kts 171°
2026-05-06 14:41 44.25696 1.75854 34934 ft 428 kts 174°
2026-05-06 14:42 44.19800 1.77102 34935 ft 427 kts 175°
2026-05-06 14:42 44.13950 1.78342 34932 ft 426 kts 175°
2026-05-06 14:43 44.08089 1.79625 34940 ft 426 kts 175°
2026-05-06 14:43 44.02257 1.80911 34926 ft 426 kts 175°
2026-05-06 14:44 43.96403 1.82198 34941 ft 425 kts 175°
2026-05-06 14:45 43.87632 1.83278 34939 ft 422 kts 181°
2026-05-06 14:45 43.81774 1.83776 34950 ft 421 kts 181°
2026-05-06 14:46 43.75945 1.84311 34958 ft 421 kts 181°
2026-05-06 14:46 43.70085 1.84873 34968 ft 421 kts 181°
2026-05-06 14:47 43.64280 1.85436 34970 ft 420 kts 181°
2026-05-06 14:47 43.58421 1.86000 34979 ft 422 kts 181°
2026-05-06 14:48 43.52540 1.86567 34967 ft 423 kts 181°
2026-05-06 14:48 43.46665 1.87132 34958 ft 422 kts 181°
2026-05-06 14:49 43.40815 1.87694 34944 ft 420 kts 181°
2026-05-06 14:49 43.35035 1.88247 34947 ft 418 kts 181°
2026-05-06 14:50 43.29236 1.88802 34947 ft 416 kts 181°
2026-05-06 14:50 43.23463 1.89355 34952 ft 414 kts 182°
2026-05-06 14:51 43.17743 1.89900 34955 ft 414 kts 182°
2026-05-06 14:51 43.11986 1.90448 34952 ft 413 kts 182°
2026-05-06 14:52 43.06236 1.90994 34960 ft 413 kts 182°
2026-05-06 14:52 43.00520 1.91536 34967 ft 413 kts 182°
2026-05-06 14:53 42.94775 1.92080 34965 ft 414 kts 182°
2026-05-06 14:53 42.89054 1.92621 34960 ft 414 kts 182°
2026-05-06 14:54 42.83288 1.93166 34958 ft 414 kts 182°
2026-05-06 14:54 42.77544 1.93706 34965 ft 413 kts 182°
2026-05-06 14:55 42.71836 1.94244 34958 ft 413 kts 182°
2026-05-06 14:55 42.66099 1.94856 34940 ft 414 kts 179°
2026-05-06 14:56 42.60525 1.95974 34958 ft 404 kts 178°
2026-05-06 14:56 42.54998 1.97147 34956 ft 399 kts 178°
2026-05-06 14:56 42.52247 1.97713 34725 ft 401 kts 178°
2026-05-06 14:57 42.49508 1.98270 34454 ft 395 kts 178°
2026-05-06 14:57 42.46799 1.98818 34076 ft 392 kts 179°
2026-05-06 14:57 42.44114 1.99358 33676 ft 389 kts 179°
2026-05-06 14:57 42.41446 1.99893 33260 ft 386 kts 179°
2026-05-06 14:58 42.38803 2.00424 32887 ft 382 kts 179°
2026-05-06 14:58 42.36175 2.00936 32499 ft 378 kts 181°
2026-05-06 14:58 42.33610 2.01296 32152 ft 373 kts 182°
2026-05-06 14:58 42.31002 2.01589 31756 ft 370 kts 183°
2026-05-06 14:59 42.28477 2.01863 31429 ft 366 kts 183°
2026-05-06 14:59 42.25944 2.02151 31059 ft 365 kts 183°
2026-05-06 14:59 42.23417 2.02451 30700 ft 363 kts 182°
2026-05-06 14:59 42.20914 2.02752 30367 ft 360 kts 183°
2026-05-06 15:00 42.18467 2.02623 29987 ft 345 kts 200°
2026-05-06 15:00 42.16257 2.01560 29625 ft 332 kts 213°
2026-05-06 15:00 42.14391 1.99827 29281 ft 321 kts 225°
2026-05-06 15:00 42.12751 1.97806 28907 ft 318 kts 227°
2026-05-06 15:01 42.11162 1.95752 28573 ft 315 kts 227°
2026-05-06 15:01 42.09582 1.93701 28206 ft 318 kts 227°
2026-05-06 15:01 42.07971 1.91624 27866 ft 322 kts 227°
2026-05-06 15:01 42.06350 1.89553 27495 ft 320 kts 226°
2026-05-06 15:02 42.04758 1.87533 27152 ft 316 kts 226°
2026-05-06 15:02 42.03164 1.85517 26819 ft 313 kts 226°
2026-05-06 15:02 42.01583 1.83520 26455 ft 310 kts 226°
2026-05-06 15:02 42.00018 1.81546 26153 ft 308 kts 226°
2026-05-06 15:03 41.98452 1.79575 25795 ft 307 kts 227°
2026-05-06 15:03 41.96894 1.77616 25465 ft 306 kts 227°
2026-05-06 15:03 41.95288 1.75726 25168 ft 308 kts 222°
2026-05-06 15:03 41.93553 1.74013 24858 ft 312 kts 220°
2026-05-06 15:04 41.91774 1.72351 24528 ft 311 kts 219°
2026-05-06 15:04 41.90023 1.70725 24187 ft 309 kts 219°
2026-05-06 15:04 41.88265 1.69083 23867 ft 306 kts 220°
2026-05-06 15:04 41.86529 1.67448 23546 ft 304 kts 220°
2026-05-06 15:05 41.84802 1.65815 23170 ft 302 kts 220°
2026-05-06 15:05 41.83101 1.64199 22825 ft 299 kts 220°
2026-05-06 15:05 41.81410 1.62592 22505 ft 297 kts 220°
2026-05-06 15:05 41.79729 1.60994 22190 ft 296 kts 220°
2026-05-06 15:06 41.78036 1.59383 21871 ft 301 kts 219°
2026-05-06 15:06 41.76314 1.57746 21531 ft 306 kts 219°
2026-05-06 15:06 41.74580 1.56101 21209 ft 304 kts 218°
2026-05-06 15:06 41.72703 1.54785 20858 ft 309 kts 201°
2026-05-06 15:07 41.70608 1.54144 20577 ft 309 kts 196°
2026-05-06 15:07 41.68501 1.53632 20244 ft 310 kts 195°
2026-05-06 15:07 41.66369 1.53125 19934 ft 312 kts 195°
2026-05-06 15:07 41.64225 1.52602 19612 ft 313 kts 195°
2026-05-06 15:08 41.62078 1.52065 19281 ft 313 kts 195°
2026-05-06 15:08 41.59937 1.51523 18972 ft 312 kts 195°
2026-05-06 15:08 41.57812 1.50978 18642 ft 310 kts 196°
2026-05-06 15:08 41.55867 1.49870 18316 ft 301 kts 219°
2026-05-06 15:09 41.54850 1.48625 18082 ft 298 kts 232°
2026-05-06 15:09 41.53557 1.45426 17568 ft 297 kts 252°
2026-05-06 15:09 41.52937 1.42794 17210 ft 297 kts 254°
2026-05-06 15:09 41.52356 1.40146 16882 ft 295 kts 255°
2026-05-06 15:10 41.51978 1.38403 16651 ft 295 kts 255°
2026-05-06 15:10 41.51540 1.36393 16402 ft 294 kts 255°
2026-05-06 15:10 41.50973 1.33816 16088 ft 292 kts 254°
2026-05-06 15:10 41.50397 1.31216 15768 ft 291 kts 254°
2026-05-06 15:11 41.49821 1.28638 15456 ft 289 kts 254°
2026-05-06 15:11 41.49245 1.26072 15136 ft 288 kts 254°
2026-05-06 15:11 41.48666 1.23507 14828 ft 287 kts 254°
2026-05-06 15:11 41.48098 1.20994 14531 ft 286 kts 254°
2026-05-06 15:12 41.47522 1.18457 14215 ft 285 kts 254°
2026-05-06 15:12 41.46948 1.15925 13915 ft 284 kts 254°
2026-05-06 15:12 41.46375 1.13411 13592 ft 283 kts 254°
2026-05-06 15:12 41.45805 1.10902 13272 ft 282 kts 254°
2026-05-06 15:13 41.45428 1.09246 13057 ft 282 kts 254°
2026-05-06 15:13 41.44858 1.06748 12762 ft 279 kts 254°
2026-05-06 15:13 41.44294 1.04279 12469 ft 277 kts 254°
2026-05-06 15:13 41.43732 1.01824 12180 ft 276 kts 254°
2026-05-06 15:14 41.43174 0.99383 11890 ft 274 kts 254°
2026-05-06 15:14 41.42624 0.96985 11592 ft 274 kts 254°
2026-05-06 15:14 41.42069 0.94563 11303 ft 272 kts 254°
2026-05-06 15:14 41.41515 0.92151 11005 ft 271 kts 254°
2026-05-06 15:15 41.40964 0.89755 10708 ft 270 kts 254°
2026-05-06 15:15 41.40412 0.87358 10432 ft 270 kts 254°
2026-05-06 15:15 41.39850 0.84962 10120 ft 270 kts 250°
2026-05-06 15:15 41.38840 0.82897 10002 ft 266 kts 227°
2026-05-06 15:16 41.37341 0.81479 9785 ft 268 kts 207°
2026-05-06 15:16 41.35589 0.80686 9505 ft 269 kts 200°
2026-05-06 15:16 41.33781 0.79999 9198 ft 269 kts 199°
2026-05-06 15:16 41.31971 0.79323 8906 ft 269 kts 200°
2026-05-06 15:17 41.30190 0.78643 8611 ft 268 kts 199°
2026-05-06 15:17 41.28408 0.77955 8459 ft 263 kts 200°
2026-05-06 15:17 41.26666 0.77276 8334 ft 258 kts 200°
2026-05-06 15:17 41.24964 0.76611 8216 ft 252 kts 200°
2026-05-06 15:18 41.23300 0.75967 8138 ft 245 kts 200°
2026-05-06 15:18 41.21646 0.75488 7915 ft 245 kts 194°
2026-05-06 15:18 41.19964 0.75108 7667 ft 244 kts 193°
2026-05-06 15:18 41.18287 0.74732 7426 ft 244 kts 194°
2026-05-06 15:19 41.16608 0.74376 7161 ft 245 kts 189°
2026-05-06 15:19 41.14892 0.74376 6925 ft 248 kts 181°
2026-05-06 15:19 41.13180 0.74504 6673 ft 250 kts 180°
2026-05-06 15:19 41.11431 0.74633 6401 ft 252 kts 181°
2026-05-06 15:20 41.09664 0.74782 6129 ft 255 kts 175°
2026-05-06 15:20 41.07942 0.75437 5872 ft 259 kts 162°
2026-05-06 15:20 41.06266 0.76368 5582 ft 262 kts 151°
2026-05-06 15:20 41.04996 0.78047 5303 ft 256 kts 120°
2026-05-06 15:21 41.04487 0.80210 5072 ft 245 kts 92°
2026-05-06 15:21 41.04672 0.82373 4799 ft 231 kts 68°
2026-05-06 15:21 41.05243 0.84302 4580 ft 222 kts 65°
2026-05-06 15:21 41.05793 0.86186 4342 ft 216 kts 65°
2026-05-06 15:22 41.06333 0.88018 4172 ft 212 kts 65°
2026-05-06 15:22 41.06874 0.89846 3952 ft 213 kts 65°
2026-05-06 15:22 41.07418 0.91679 3678 ft 211 kts 66°
2026-05-06 15:22 41.07946 0.93460 3446 ft 209 kts 65°
2026-05-06 15:23 41.08468 0.95239 3239 ft 204 kts 65°
2026-05-06 15:23 41.08974 0.96981 3026 ft 200 kts 66°
2026-05-06 15:23 41.09479 0.98696 2763 ft 200 kts 66°
2026-05-06 15:23 41.09978 1.00402 2533 ft 197 kts 67°
2026-05-06 15:24 41.10469 1.02084 2320 ft 195 kts 67°
2026-05-06 15:24 41.10963 1.03765 2105 ft 195 kts 66°
2026-05-06 15:24 41.11436 1.05460 1828 ft 195 kts 66°
2026-05-06 15:24 41.11923 1.07096 1591 ft 192 kts 66°
2026-05-06 15:25 41.12399 1.08701 1397 ft 180 kts 68°
2026-05-06 15:25 41.12839 1.10197 1209 ft 166 kts 69°
2026-05-06 15:25 41.13229 1.11535 1184 ft 150 kts 70°
2026-05-06 15:25 41.13645 1.12913 1383 ft 160 kts 68°
2026-05-06 15:26 41.14056 1.14366 1900 ft 179 kts 68°
2026-05-06 15:26 41.14483 1.15959 2521 ft 202 kts 69°
2026-05-06 15:26 41.14979 1.17861 3009 ft 226 kts 70°
2026-05-06 15:26 41.15186 1.20012 3549 ft 244 kts 99°
2026-05-06 15:27 41.14558 1.22144 3897 ft 252 kts 127°
2026-05-06 15:27 41.13240 1.23579 4191 ft 245 kts 158°
2026-05-06 15:27 41.11626 1.24187 4474 ft 240 kts 171°
2026-05-06 15:27 41.09986 1.24626 4727 ft 245 kts 171°
2026-05-06 15:28 41.08325 1.25055 4933 ft 238 kts 171°
2026-05-06 15:28 41.06677 1.25317 4948 ft 238 kts 192°
2026-05-06 15:28 41.05187 1.24444 4991 ft 237 kts 217°
2026-05-06 15:28 41.03799 1.23235 4975 ft 238 kts 214°
2026-05-06 15:29 41.02383 1.22095 4959 ft 236 kts 219°
2026-05-06 15:29 41.01458 1.20406 4971 ft 225 kts 255°
2026-05-06 15:29 41.01059 1.18445 4969 ft 224 kts 257°
2026-05-06 15:29 41.00664 1.16446 4960 ft 224 kts 257°
2026-05-06 15:30 41.00243 1.14356 4992 ft 244 kts 257°
2026-05-06 15:30 40.99791 1.12163 4976 ft 248 kts 256°
2026-05-06 15:30 40.99332 1.09978 4971 ft 250 kts 256°
2026-05-06 15:30 40.98860 1.07768 4957 ft 249 kts 256°
2026-05-06 15:31 40.98385 1.05563 4958 ft 248 kts 256°
2026-05-06 15:31 40.98071 1.04113 4956 ft 247 kts 256°